Flag for Norway Weather past 2 weeks in Grimstad, Norway

Now
46 °F

Cool.


Feels Like: 39 °F
Forecast: 36 / 47 °F
Wind: 14 mph from Southwest

Location: Torungen Fyr

Current Time: Apr 26, 2015 at 6:33:34 PM

Latest Report: Apr 26, 2015 at 5:00 PM


Visibility: N/A

Pressure: 29.62 "Hg

Humidity: 82%

Dew point: 40 °F

Location of GrimstadLocation

Historic Weather in Grimstad — Graph

°F

Grimstad temperature yesterday

Maximum temperature yesterday: 46 °F (at 3:00 PM)
Minimum temperature yesterday: 44 °F (at 12:00 AM)
Average temperature yesterday: 45 °F

Past Weeks' High & Low Weather Summary

 TemperatureHumidityPressure
High69 °F (Apr 20, 5:00 PM)99% (Apr 11, 9:00 PM)30.38 "Hg (Apr 11, 9:00 PM)
Low38 °F (Apr 13, 7:00 AM)17% (Apr 20, 5:00 PM)29.41 "Hg (Apr 25, 5:00 PM)
Average47 °F69%29.95 "Hg
* Reported Apr 11 5:00 PM — Apr 26 5:00 PM, Grimstad, Weather by CustomWeather, © 2015

Note: Actual official high and low records may vary slightly from our data, if they occured in-between our weather recording intervals... More about our weather records

Advertising

Grimstad weather history for previous 24 hours

 ConditionsComfort  
Time TempWeatherWind HumidityBarometerVisibility
5:00 PM
Sun, Apr 26
46 °FCool.14 mph82%29.62 "HgN/A
4:00 PM46 °FCool.14 mph78%29.62 "HgN/A
3:00 PM46 °FCool.14 mph77%29.63 "HgN/A
2:00 PM46 °FCool.14 mph75%29.63 "HgN/A
1:00 PM49 °FCool.9 mph60%29.62 "HgN/A
12:00 PM48 °FCool.9 mph58%29.62 "HgN/A
11:00 AM46 °FCool.8 mph64%29.62 "HgN/A
10:00 AM45 °FCool.8 mph69%29.61 "HgN/A
9:00 AM44 °FQuite cool.7 mph76%29.60 "HgN/A
8:00 AM42 °FQuite cool.8 mph82%29.60 "HgN/A
7:00 AM40 °FQuite cool.8 mph85%29.59 "HgN/A
6:00 AM39 °FChilly.6 mph88%29.57 "HgN/A
4:00 AM40 °FChilly.9 mph88%29.56 "HgN/A
3:00 AM40 °FQuite cool.9 mph87%29.55 "HgN/A
2:00 AM40 °FChilly.8 mph88%29.54 "HgN/A
1:00 AM40 °FQuite cool.9 mph85%29.53 "HgN/A
12:00 AM41 °FQuite cool.7 mph80%29.50 "HgN/A
11:00 PM
Sat, Apr 25
44 °FQuite cool.10 mph83%29.47 "HgN/A
10:00 PM45 °FQuite cool.10 mph96%29.44 "HgN/A
9:00 PM45 °FQuite cool.13 mph97%29.41 "HgN/A
8:00 PM46 °FCool.15 mph99%29.41 "HgN/A
7:00 PM46 °FCool.14 mph98%29.41 "HgN/A
6:00 PM46 °FCool.13 mph97%29.41 "HgN/A
Weather by CustomWeather, © 2015

See weather overviewHow to use our weather pages